Regional Weather Roundup
Issued by NWS Kansas City/Pleasant Hill, MO

Home | Current Version | Previous Version | Graphics & Text | Print | Product List | Glossary Off
Versions: 1 2 3 4 5 6 7 8 9 10 11 12 13 14 15 16 17 18 19 20 21 22 23 24 25 26 27 28 29 30 31 32 33 34 35 36 37 38 39 40 41 42 43 44 45 46 47 48 49 50

000
ASUS43 KEAX 311410
RWREAX

WEATHER ROUNDUP FOR EASTERN KANSAS AND NORTHWEST MISSOURI
NATIONAL WEATHER SERVICE KANSAS CITY/PLEASANT HILL MO
900 AM CDT MON AUG 31 2015

KSZ040-057-103>105-MOZ028-029-037-043-311500-
...KANSAS CITY METROPOLITAN AREA...

CITY           SKY/WX    TMP DP  RH WIND       PRES   REMARKS
K.C. INTL      MOSUNNY   75  71  87 S8        29.99S
K.C. DOWNTOWN  PTSUNNY   77  71  82 S7        29.98S
LEES SUMMIT    SUNNY     74  70  87 S7        30.01R
OLATHE - IXD   SUNNY     73  71  93 S7        30.01R FOG
OLATHE - OJC   SUNNY     72  71  97 S8        30.00R FOG
LAWRENCE       MOSUNNY   73  70  90 SE5       29.99R FOG

$$

MOZ001>008-011>017-020>025-030>033-038>040-044>046-053-054-311500-
...NORTHERN AND CENTRAL MISSOURI...

CITY           SKY/WX    TMP DP  RH WIND       PRES   REMARKS
ST. JOSEPH     SUNNY     74  71  91 S3        29.98S FOG
MOSBY          SUNNY     73  72  94 SE5       30.00R
WARRENSBURG    SUNNY     73  68  83 S6        30.01S
WHITEMAN AFB   SUNNY     76  70  81 SW10      30.01R
CLINTON        SUNNY     77  72  83 S7        30.02S
SEDALIA        SUNNY     78  69  73 S12       30.03S
WARSAW         NOT AVBL
CHILLICOTHE      N/A     76  72  87 SE7       30.01S
KIRKSVILLE     SUNNY     76  70  82 S6        30.04S

$$

MOZ041-047>049-056>058-063>065-088>090-097-311500-
...EASTERN AND SOUTHERN MISSOURI...

CITY           SKY/WX    TMP DP  RH WIND       PRES   REMARKS
ST. LOUIS INTL MOSUNNY   78  69  73 SW7       30.07S
SPIRIT OF STL  MOSUNNY   79  71  76 SW7       30.05S
COLUMBIA       SUNNY     75  70  84 S9        30.05R
JEFFERSON CITY SUNNY     75  69  81 E6        30.04S
ROLLA          SUNNY     75  68  78 S10       30.07R
OSAGE BEACH    SUNNY     75  68  78 S5        30.06R
SPRINGFIELD    SUNNY     75  68  78 S10       30.06R
BRANSON        MOSUNNY   75  68  78 S8        30.09R
JOPLIN         SUNNY     76  68  76 S12       30.03R
WEST PLAINS    CLOUDY    72  69  90 S5        30.13R

$$

IAZ060-094-KSZ022-034>040-054-083-096-NEZ052-066-093-311500-
...KANSAS...SOUTHEAST NEBRASKA AND IOWA...

CITY           SKY/WX    TMP DP  RH WIND       PRES   REMARKS
TOPEKA         MOSUNNY   72  69  90 CALM      29.99R FOG
MANHATTAN      SUNNY     72  69  90 CALM      29.97R
EMPORIA        FOG       69  69 100 S9        29.99R VSB 1/4
CHANUTE        SUNNY     72  69  90 SE8       30.00S
WICHITA        MOSUNNY   73  68  84 S10       29.97R
OMAHA          MOSUNNY   70  68  93 S5        29.96F FOG
LINCOLN        SUNNY     68  67  96 S7        29.97S FOG
FALLS CITY     MOSUNNY   71  69  93 SE5       29.97S FOG
LAMONI         SUNNY     73  70  90 SE8       30.00S FOG
DES MOINES     SUNNY     71  67  87 S9        29.99R

$$




USA.gov is the U.S. government's official web portal to all federal, state and local government web resources and services.